Flag for U.S.A. Weather past 2 weeks in Victorville, California, U.S.A.

Now
64 °F

Sunny.


Feels Like: 64 °F
Forecast: 35 / 69 °F
Wind: 15 mph from Northeast

Location: George Air Force Base / Victorvi

Current Time: Mar 5, 2015 at 4:14:43 PM

Latest Report: Mar 5, 2015 at 3:35 PM


Visibility: 10 mi

Pressure: 30.28 "Hg

Humidity: 10%

Dew point: 7 °F

Location of VictorvilleLocation

Historic Weather in Victorville — Graph

°F

Victorville temperature yesterday

Maximum temperature yesterday: 59 °F (at 2:15 PM)
Minimum temperature yesterday: 32 °F (at 6:15 AM)
Average temperature yesterday: 45 °F

Past Weeks' High & Low Weather Summary

 TemperatureHumidityPressure
High79 °F (Feb 19, 2:55 PM)100% (Feb 22, 11:15 PM)30.37 "Hg (Feb 22, 11:15 PM)
Low27 °F (Mar 5, 5:35 AM)9% (Feb 19, 2:55 PM)29.70 "Hg (Feb 27, 3:35 PM)
Average49 °F54%29.97 "Hg
* Reported Feb 18 2:15 PM — Mar 5 2:55 PM, Victorville, Weather by CustomWeather, © 2015

Note: Actual official high and low records may vary slightly from our data, if they occured in-between our weather recording intervals... More about our weather records

Advertising

Victorville weather history for previous 24 hours

 ConditionsComfort  
Time TempWeatherWind HumidityBarometerVisibility
2:55 PM
Thu, Mar 5
64 °FSunny.15 mph10%30.28 "Hg10 mi
2:35 PM64 °FSunny.12 mph10%30.28 "Hg10 mi
1:55 PM64 °FScattered clouds.13 mph11%30.29 "Hg10 mi
1:35 PM64 °FScattered clouds.9 mph12%30.30 "Hg10 mi
12:55 PM63 °FSunny.7 mph14%30.32 "Hg10 mi
12:35 PM63 °FScattered clouds.15 mph14%30.33 "Hg10 mi
12:15 PM61 °FScattered clouds.9 mph16%30.34 "Hg10 mi
11:55 AM61 °FScattered clouds.10 mph15%30.35 "Hg10 mi
11:15 AM59 °FRefreshingly cool.10 mph17%30.36 "Hg10 mi
10:55 AM57 °FRefreshingly cool.6 mph20%30.36 "Hg10 mi
10:35 AM57 °FRefreshingly cool.8 mph20%30.37 "Hg10 mi
9:55 AM54 °FCool.6 mph22%30.37 "Hg10 mi
9:35 AM52 °FCool.No wind22%30.37 "Hg10 mi
9:15 AM48 °FCool.No wind25%30.37 "Hg10 mi
7:55 AM41 °FQuite cool.3 mph36%30.36 "Hg10 mi
7:35 AM39 °FChilly.3 mph42%30.35 "Hg10 mi
7:15 AM34 °FChilly.5 mph51%30.34 "Hg10 mi
6:55 AM30 °FChilly.5 mph55%30.34 "Hg10 mi
6:35 AM28 °FChilly.3 mph59%30.33 "Hg10 mi
6:15 AM28 °FChilly.3 mph59%30.32 "Hg10 mi
5:55 AM28 °FChilly.3 mph59%30.31 "Hg10 mi
5:35 AM27 °FChilly.6 mph59%30.30 "Hg10 mi
5:15 AM28 °FChilly.No wind55%30.30 "Hg10 mi
4:55 AM34 °FChilly.No wind44%30.29 "Hg10 mi
4:35 AM28 °FChilly.3 mph55%30.28 "Hg10 mi
4:15 AM28 °FChilly.No wind55%30.27 "Hg10 mi
3:55 AM28 °FChilly.3 mph51%30.27 "Hg10 mi
3:15 AM30 °FChilly.3 mph51%30.26 "Hg10 mi
2:55 AM30 °FChilly.5 mph51%30.26 "Hg10 mi
2:35 AM30 °FChilly.6 mph51%30.26 "Hg10 mi
2:15 AM30 °FChilly.5 mph55%30.26 "Hg10 mi
1:55 AM30 °FChilly.3 mph51%30.26 "Hg10 mi
1:15 AM30 °FChilly.5 mph51%30.26 "Hg10 mi
12:55 AM36 °FChilly.No wind38%30.26 "Hg10 mi
12:15 AM37 °FChilly.No wind35%30.25 "Hg10 mi
11:55 PM
Wed, Mar 4
34 °FChilly.No wind44%30.25 "Hg10 mi
11:15 PM34 °FChilly.7 mph44%30.25 "Hg10 mi
10:55 PM36 °FChilly.5 mph38%30.25 "Hg10 mi
10:15 PM39 °FChilly.3 mph33%30.24 "Hg10 mi
9:55 PM37 °FChilly.5 mph38%30.24 "Hg10 mi
9:35 PM37 °FChilly.3 mph35%30.23 "Hg10 mi
9:15 PM37 °FChilly.3 mph35%30.23 "Hg10 mi
8:55 PM39 °FClear.5 mph30%30.22 "Hg10 mi
8:15 PM48 °FClear.No wind20%30.20 "Hg10 mi
7:35 PM52 °FClear.No wind17%30.19 "Hg10 mi
7:15 PM52 °FClear.3 mph19%30.19 "Hg10 mi
6:15 PM54 °FClear.3 mph16%30.16 "Hg10 mi
5:55 PM54 °FClear.5 mph16%30.16 "Hg10 mi
5:15 PM57 °FSunny.6 mph14%30.16 "Hg10 mi
4:55 PM57 °FSunny.5 mph14%30.15 "Hg10 mi
4:15 PM59 °FRefreshingly cool.6 mph14%30.14 "Hg10 mi
Weather by CustomWeather, © 2015

See weather overviewHow to use our weather pages